Weather History for KBTM - October, 2013

Change the Weather History Date:

Friday, October 4, 2013

  Actual Average Record
Temperature  
Mean Temperature 34 °F 45 °F  
Max Temperature 42 °F 60 °F 79 °F (1921)
Min Temperature 25 °F 30 °F 15 °F (1973)
Degree Days  
Heating Degree Days 31 20  
Month to date heating degree days 112 78  
Since 1 July heating degree days 487 699  
Cooling Degree Days 0 0  
Month to date cooling degree days 0 0  
Year to date cooling degree days 104 81  
Moisture  
Dew Point 25 °F    
Average Humidity 69    
Maximum Humidity 92    
Minimum Humidity 46    
Precipitation  
Precipitation T in 0.03 in 0.65 in (1941)
Month to date precipitation 0.06 0.12  
Year to date precipitation 10.34 11.00  
Sea Level Pressure  
Sea Level Pressure 30.47 in    
Wind  
Wind Speed 3 mph (WNW)    
Max Wind Speed 10 mph    
Max Gust Speed 14 mph    
Visibility 9 miles    
Events Snow    
T = Trace of Precipitation, MM = Missing Value Source: NWS Daily Summary

Daily Weather History Graph

Daily Weather History Graph

Search for Another Location

Airport or City:

Trip Planner

Search our weather history database for the weather conditions in past years. The results will help you decide how hot, cold, wet, or windy it might be!

Date:

Astronomy

Oct. 04, 2013 Rise Set
Actual Time 7:32 AM MDT 7:03 PM MDT
Civil Twilight 7:02 AM MDT 7:33 PM MDT
Nautical Twilight 6:28 AM MDT 8:07 PM MDT
Astronomical Twilight 5:53 AM MDT 8:42 PM MDT
Moon 7:13 AM MDT (10/4) 6:46 PM MDT (10/4)
Length of Visible Light 12h 30m
Length of Day
11h 31m
Waning Crescent, 0% of the Moon is Illuminated
Oct 4
Waning Crescent
Oct 4
New
Oct 11
First Quarter
Oct 18
Full
Oct 26
Last Quarter

Hourly Weather History & Observations

Time (MDT) Temp. Windchill Dew Point Humidity Pressure Visibility Wind Dir Wind Speed Gust Speed Precip Events Conditions
12:17 AM 30.2 °F 23.4 °F 26.6 °F 86% 30.32 in 10.0 mi NW 6.9 mph - N/A   Overcast
12:53 AM 30.9 °F 27.5 °F 25.0 °F 79% 30.42 in 10.0 mi WNW 3.5 mph - N/A   Overcast
1:53 AM 30.0 °F 26.5 °F 27.0 °F 88% 30.43 in 3.0 mi WNW 3.5 mph - 0.00 in Snow Light Snow
2:17 AM 30.2 °F - 26.6 °F 86% 30.35 in 4.0 mi Calm Calm - 0.00 in Snow Light Snow
2:34 AM 30.2 °F - 26.6 °F 86% 30.35 in 5.0 mi Calm Calm - 0.00 in Snow Light Snow
2:53 AM 30.0 °F - 27.0 °F 88% 30.44 in 4.0 mi Calm Calm - 0.00 in Snow Light Snow
3:53 AM 30.0 °F 26.5 °F 27.0 °F 88% 30.45 in 2.5 mi Variable 3.5 mph - 0.00 in Snow Light Snow
4:16 AM 30.2 °F 23.4 °F 26.6 °F 86% 30.37 in 2.5 mi NW 6.9 mph - 0.00 in Snow Light Snow
4:23 AM 30.2 °F 23.4 °F 26.6 °F 86% 30.37 in 3.0 mi NW 6.9 mph - 0.00 in Snow Light Snow
4:53 AM 30.0 °F 24.1 °F 27.0 °F 88% 30.46 in 9.0 mi WNW 5.8 mph - 0.00 in   Overcast
5:53 AM 30.0 °F 24.1 °F 27.0 °F 88% 30.49 in 10.0 mi WNW 5.8 mph - N/A   Overcast
6:24 AM 28.4 °F 23.3 °F 26.6 °F 93% 30.40 in 10.0 mi WNW 4.6 mph - 0.00 in   Overcast
6:32 AM 28.4 °F 23.3 °F 26.6 °F 93% 30.40 in 10.0 mi WNW 4.6 mph - 0.00 in   Mostly Cloudy
6:53 AM 30.0 °F 26.5 °F 26.1 °F 85% 30.51 in 10.0 mi NNW 3.5 mph - 0.00 in   Mostly Cloudy
7:53 AM 28.9 °F - 26.1 °F 89% 30.53 in 10.0 mi Calm Calm - N/A   Overcast
8:53 AM 28.9 °F 25.2 °F 26.1 °F 89% 30.54 in 10.0 mi ESE 3.5 mph - N/A   Clear
9:53 AM 28.9 °F 23.9 °F 25.0 °F 85% 30.56 in 10.0 mi ESE 4.6 mph - N/A   Mostly Cloudy
10:53 AM 32.0 °F - 25.0 °F 75% 30.54 in 10.0 mi Calm Calm - N/A   Overcast
11:40 AM 33.8 °F 27.7 °F 24.8 °F 70% 30.46 in 10.0 mi West 6.9 mph - N/A   Overcast
11:53 AM 34.0 °F 28.0 °F 23.0 °F 64% 30.56 in 10.0 mi NW 6.9 mph - N/A   Overcast
12:11 PM 33.8 °F 26.4 °F 23.0 °F 65% 30.46 in 10.0 mi WNW 9.2 mph - N/A   Overcast
12:53 PM 34.0 °F 27.2 °F 24.1 °F 67% 30.56 in 10.0 mi WNW 8.1 mph - N/A   Overcast
1:53 PM 36.0 °F 33.3 °F 23.0 °F 59% 30.53 in 10.0 mi Variable 3.5 mph - N/A   Overcast
2:53 PM 37.9 °F 35.5 °F 23.0 °F 55% 30.51 in 10.0 mi Variable 3.5 mph - N/A   Partly Cloudy
3:53 PM 39.0 °F - 21.9 °F 50% 30.49 in 10.0 mi Calm Calm - N/A   Clear
4:53 PM 41.0 °F 39.0 °F 23.0 °F 49% 30.48 in 10.0 mi Variable 3.5 mph - N/A   Clear
5:53 PM 41.0 °F 39.0 °F 24.1 °F 51% 30.47 in 10.0 mi Variable 3.5 mph - N/A   Clear
6:53 PM 39.0 °F 36.8 °F 26.1 °F 60% 30.48 in 10.0 mi WSW 3.5 mph - N/A   Clear
7:53 PM 35.1 °F - 27.0 °F 72% 30.49 in 10.0 mi Calm Calm - N/A   Clear
8:53 PM 32.0 °F 28.7 °F 27.0 °F 82% 30.52 in 10.0 mi SSW 3.5 mph - N/A   Clear
9:53 PM 30.0 °F - 27.0 °F 88% 30.53 in 10.0 mi Calm Calm - N/A   Clear
10:53 PM 27.0 °F - 25.0 °F 92% 30.53 in 10.0 mi Calm Calm - N/A   Clear
11:53 PM 26.1 °F - 24.1 °F 92% 30.53 in 10.0 mi Calm Calm - N/A   Clear